Location: Unspecified
(0.0000°N, 0.0000°E)
Time: 00:53:26
(UTC+00:00)

TBA - TO BE ASSIGNED - Visible Passes

Search period start: 18 May 2026 00:00
Search period end: 28 May 2026 00:00
Orbit: 462 x 464 km, 53.2° (Epoch: 17 May)

Date Brightness Start Highest point End Pass type
(mag) Time Alt. Az. Time Alt. Az. Time Alt. Az.
25 May ? 19:02:37 10° S 19:03:28 15° S 19:03:28 15° S visible
26 May ? 18:29:35 10° SSE 18:31:57 16° SE 18:34:19 10° E visible
26 May ? 20:06:51 10° W 20:09:22 18° NW 20:09:31 18° NW visible
27 May ? 19:32:43 10° WSW 19:35:45 25° NW 19:38:46 10° N visible
